Orbital Elements at Epoch 2459200.5 (2020-Dec-17.0) TDB
Reference: JPL 18 (heliocentric ecliptic J2000)
Element | Value | Uncertainty (1-sigma) | Units |
e | .1680850244905566 | 4.2393e-08 | |
a | 3.174989703291032 | 2.8041e-08 | au |
q | 2.641321481256094 | 1.4403e-07 | au |
i | 4.312168563284493 | 4.2408e-06 | deg |
node | 298.1393165450176 | 6.6647e-05 | deg |
peri | 10.75589378169179 | 6.8179e-05 | deg |
M | 294.6838035585155 | 1.7293e-05 | deg |
tp | 2459575.412822759652 (2021-Dec-26.91282276) | 0.00010185 | TDB |
period | 2066.388178533797 5.66 | 2.7375e-05 7.495e-08 | d yr |
n | .174217024535747 | 2.308e-09 | deg/d |
Q | 3.70865792532597 | 3.2755e-08 | au |
|
| | Orbit Determination Parameters
Additional Information
|